Time,TemperatureF,DewpointF,PressureIn,WindDirection,WindDirectionDegrees,WindSpeedMPH,WindSpeedGustMPH,Humidity,HourlyPrecipIn,Conditions,Clouds,dailyrainin,SolarRadiationWatts/m^2,SoftwareType,DateUTC
2013-05-22 00:01:00,43.0,23.0,-100.00,WNW,301,4.0,6.0,45,0.00,,,0.00,0.000000,,2013-05-22 07:01:00,
2013-05-22 00:11:00,43.0,23.0,-100.00,WNW,301,4.0,6.0,45,0.00,,,0.00,0.000000,,2013-05-22 07:11:00,
2013-05-22 00:21:00,43.0,23.0,-100.00,WNW,301,4.0,6.0,45,0.00,,,0.00,0.000000,,2013-05-22 07:21:00,
2013-05-22 00:42:00,43.0,25.0,-100.00,WNW,299,4.0,6.0,48,0.00,,,0.00,0.000000,,2013-05-22 07:42:00,
2013-05-22 00:52:00,43.0,25.0,-100.00,WNW,299,4.0,6.0,48,0.00,,,0.00,0.000000,,2013-05-22 07:52:00,
2013-05-22 01:02:00,43.0,25.0,-100.00,WNW,299,4.0,6.0,48,0.00,,,0.00,0.000000,,2013-05-22 08:02:00,
2013-05-22 01:11:00,43.0,25.0,-100.00,WNW,299,4.0,6.0,48,0.00,,,0.00,0.000000,,2013-05-22 08:11:00,
2013-05-22 01:21:00,43.0,25.0,-100.00,WNW,299,4.0,6.0,48,0.00,,,0.00,0.000000,,2013-05-22 08:21:00,
2013-05-22 01:42:00,42.0,26.0,-100.00,WNW,287,3.0,7.0,53,0.00,,,0.00,0.000000,,2013-05-22 08:42:00,
2013-05-22 01:52:00,42.0,26.0,-100.00,WNW,287,3.0,7.0,53,0.00,,,0.00,0.000000,,2013-05-22 08:52:00,
2013-05-22 02:01:00,42.0,26.0,-100.00,WNW,287,3.0,7.0,53,0.00,,,0.00,0.000000,,2013-05-22 09:01:00,
2013-05-22 02:11:00,42.0,26.0,-100.00,WNW,287,3.0,7.0,53,0.00,,,0.00,0.000000,,2013-05-22 09:11:00,
2013-05-22 02:21:00,42.0,26.0,-100.00,WNW,287,3.0,7.0,53,0.00,,,0.00,0.000000,,2013-05-22 09:21:00,
2013-05-22 02:42:00,40.0,25.0,-100.00,WNW,293,1.0,5.0,54,0.00,,,0.00,0.000000,,2013-05-22 09:42:00,
2013-05-22 02:53:00,40.0,25.0,-100.00,WNW,293,1.0,5.0,54,0.00,,,0.00,0.000000,,2013-05-22 09:53:00,
2013-05-22 03:02:00,40.0,25.0,-100.00,WNW,293,1.0,5.0,54,0.00,,,0.00,0.000000,,2013-05-22 10:02:00,
2013-05-22 03:12:00,40.0,25.0,-100.00,WNW,293,1.0,5.0,54,0.00,,,0.00,0.000000,,2013-05-22 10:12:00,
2013-05-22 03:22:00,40.0,25.0,-100.00,WNW,293,1.0,5.0,54,0.00,,,0.00,0.000000,,2013-05-22 10:22:00,
2013-05-22 03:42:00,40.0,27.0,-100.00,North,356,2.0,6.0,60,0.00,,,0.00,0.000000,,2013-05-22 10:42:00,
2013-05-22 03:52:00,40.0,27.0,-100.00,North,356,2.0,6.0,60,0.00,,,0.00,0.000000,,2013-05-22 10:52:00,
2013-05-22 04:02:00,40.0,27.0,-100.00,North,356,2.0,6.0,60,0.00,,,0.00,0.000000,,2013-05-22 11:02:00,
2013-05-22 04:11:00,40.0,27.0,-100.00,North,356,2.0,6.0,60,0.00,,,0.00,0.000000,,2013-05-22 11:11:00,
2013-05-22 04:21:00,40.0,27.0,-100.00,North,356,2.0,6.0,60,0.00,,,0.00,0.000000,,2013-05-22 11:21:00,
2013-05-22 04:42:00,39.0,28.0,-100.00,North,10,3.0,4.0,64,0.00,,,0.00,0.000000,,2013-05-22 11:42:00,
2013-05-22 04:52:00,39.0,28.0,-100.00,North,10,3.0,4.0,64,0.00,,,0.00,0.000000,,2013-05-22 11:52:00,
2013-05-22 05:02:00,39.0,28.0,-100.00,North,10,3.0,4.0,64,0.00,,,0.00,0.000000,,2013-05-22 12:02:00,
2013-05-22 05:11:00,39.0,28.0,-100.00,North,10,3.0,4.0,64,0.00,,,0.00,0.000000,,2013-05-22 12:11:00,
2013-05-22 05:22:00,39.0,28.0,-100.00,North,10,3.0,4.0,64,0.00,,,0.00,0.000000,,2013-05-22 12:22:00,
2013-05-22 05:42:00,39.0,28.0,-100.00,NNE,33,3.0,5.0,64,0.00,,,0.00,0.000000,,2013-05-22 12:42:00,
2013-05-22 05:52:00,39.0,28.0,-100.00,NNE,33,3.0,5.0,64,0.00,,,0.00,0.000000,,2013-05-22 12:52:00,
2013-05-22 06:01:00,39.0,28.0,-100.00,NNE,33,3.0,5.0,64,0.00,,,0.00,0.000000,,2013-05-22 13:01:00,
2013-05-22 06:11:00,39.0,28.0,-100.00,NNE,33,3.0,5.0,64,0.00,,,0.00,0.000000,,2013-05-22 13:11:00,
2013-05-22 06:21:00,39.0,28.0,-100.00,NNE,33,3.0,5.0,64,0.00,,,0.00,0.000000,,2013-05-22 13:21:00,
2013-05-22 06:42:00,37.0,27.0,-100.00,WSW,257,4.0,6.0,66,0.00,,,0.00,10.000000,,2013-05-22 13:42:00,
2013-05-22 06:52:00,37.0,27.0,-100.00,WSW,257,4.0,6.0,66,0.00,,,0.00,10.000000,,2013-05-22 13:52:00,
2013-05-22 07:02:00,37.0,27.0,-100.00,WSW,257,4.0,6.0,66,0.00,,,0.00,10.000000,,2013-05-22 14:02:00,
2013-05-22 07:11:00,37.0,27.0,-100.00,WSW,257,4.0,6.0,66,0.00,,,0.00,10.000000,,2013-05-22 14:11:00,
2013-05-22 07:21:00,37.0,27.0,-100.00,WSW,257,4.0,6.0,66,0.00,,,0.00,10.000000,,2013-05-22 14:21:00,
2013-05-22 07:42:00,45.0,29.0,-100.00,SE,126,2.0,5.0,54,0.00,,,0.00,226.000000,,2013-05-22 14:42:00,
2013-05-22 07:52:00,45.0,29.0,-100.00,SE,126,2.0,5.0,54,0.00,,,0.00,226.000000,,2013-05-22 14:52:00,
2013-05-22 08:01:00,45.0,29.0,-100.00,SE,126,2.0,5.0,54,0.00,,,0.00,226.000000,,2013-05-22 15:01:00,
2013-05-22 08:11:00,45.0,29.0,-100.00,SE,126,2.0,5.0,54,0.00,,,0.00,226.000000,,2013-05-22 15:11:00,
2013-05-22 08:21:00,45.0,29.0,-100.00,SE,126,2.0,5.0,54,0.00,,,0.00,226.000000,,2013-05-22 15:21:00,
2013-05-22 08:43:00,48.0,32.0,-100.00,SE,128,3.0,7.0,53,0.00,,,0.00,507.000000,,2013-05-22 15:43:00,
2013-05-22 08:53:00,48.0,32.0,-100.00,SE,128,3.0,7.0,53,0.00,,,0.00,507.000000,,2013-05-22 15:53:00,
2013-05-22 09:03:00,48.0,32.0,-100.00,SE,128,3.0,7.0,53,0.00,,,0.00,507.000000,,2013-05-22 16:03:00,
2013-05-22 09:12:00,48.0,32.0,-100.00,SE,128,3.0,7.0,53,0.00,,,0.00,507.000000,,2013-05-22 16:12:00,
2013-05-22 09:22:00,48.0,32.0,-100.00,SE,128,3.0,7.0,53,0.00,,,0.00,507.000000,,2013-05-22 16:22:00,
2013-05-22 09:42:00,52.0,25.0,-100.00,SE,143,3.0,9.0,34,0.00,,,0.00,793.000000,,2013-05-22 16:42:00,
2013-05-22 09:52:00,52.0,25.0,-100.00,SE,143,3.0,9.0,34,0.00,,,0.00,793.000000,,2013-05-22 16:52:00,
2013-05-22 10:02:00,52.0,25.0,-100.00,SE,143,3.0,9.0,34,0.00,,,0.00,793.000000,,2013-05-22 17:02:00,
2013-05-22 10:11:00,52.0,25.0,-100.00,SE,143,3.0,9.0,34,0.00,,,0.00,793.000000,,2013-05-22 17:11:00,
2013-05-22 10:22:00,52.0,25.0,-100.00,SE,143,3.0,9.0,34,0.00,,,0.00,793.000000,,2013-05-22 17:22:00,
2013-05-22 10:42:00,53.0,15.0,-100.00,SW,234,7.0,16.0,22,0.00,,,0.00,1034.000000,,2013-05-22 17:42:00,
2013-05-22 10:53:00,53.0,15.0,-100.00,SW,234,7.0,16.0,22,0.00,,,0.00,1034.000000,,2013-05-22 17:53:00,
2013-05-22 11:02:00,53.0,15.0,-100.00,SW,234,7.0,16.0,22,0.00,,,0.00,1034.000000,,2013-05-22 18:02:00,
2013-05-22 11:14:00,53.0,15.0,-100.00,SW,234,7.0,16.0,22,0.00,,,0.00,1034.000000,,2013-05-22 18:14:00,
2013-05-22 11:22:00,53.0,15.0,-100.00,SW,234,7.0,16.0,22,0.00,,,0.00,1034.000000,,2013-05-22 18:22:00,
2013-05-22 11:42:00,52.0,19.0,-100.00,WSW,251,9.0,17.0,27,0.00,,,0.00,1222.000000,,2013-05-22 18:42:00,
2013-05-22 11:52:00,52.0,19.0,-100.00,WSW,251,9.0,17.0,27,0.00,,,0.00,1222.000000,,2013-05-22 18:52:00,
2013-05-22 12:02:00,52.0,19.0,-100.00,WSW,251,9.0,17.0,27,0.00,,,0.00,1222.000000,,2013-05-22 19:02:00,
2013-05-22 12:11:00,52.0,19.0,-100.00,WSW,251,9.0,17.0,27,0.00,,,0.00,1222.000000,,2013-05-22 19:11:00,
2013-05-22 12:21:00,52.0,19.0,-100.00,WSW,251,9.0,17.0,27,0.00,,,0.00,1222.000000,,2013-05-22 19:21:00,
2013-05-22 12:42:00,51.0,18.0,-100.00,West,271,10.0,20.0,27,0.00,,,0.00,1343.000000,,2013-05-22 19:42:00,
2013-05-22 12:52:00,51.0,18.0,-100.00,West,271,10.0,20.0,27,0.00,,,0.00,1343.000000,,2013-05-22 19:52:00,
2013-05-22 13:02:00,51.0,18.0,-100.00,West,271,10.0,20.0,27,0.00,,,0.00,1343.000000,,2013-05-22 20:02:00,
2013-05-22 13:11:00,51.0,18.0,-100.00,West,271,10.0,20.0,27,0.00,,,0.00,1343.000000,,2013-05-22 20:11:00,
2013-05-22 13:21:00,51.0,18.0,-100.00,West,271,10.0,20.0,27,0.00,,,0.00,1343.000000,,2013-05-22 20:21:00,
2013-05-22 13:42:00,51.0,17.0,-100.00,WSW,249,10.0,20.0,26,0.00,,,0.00,1400.000000,,2013-05-22 20:42:00,
2013-05-22 13:52:00,51.0,17.0,-100.00,WSW,249,10.0,20.0,26,0.00,,,0.00,1400.000000,,2013-05-22 20:52:00,
2013-05-22 14:01:00,51.0,17.0,-100.00,WSW,249,10.0,20.0,26,0.00,,,0.00,1400.000000,,2013-05-22 21:01:00,
2013-05-22 14:11:00,51.0,17.0,-100.00,WSW,249,10.0,20.0,26,0.00,,,0.00,1400.000000,,2013-05-22 21:11:00,
2013-05-22 14:21:00,51.0,17.0,-100.00,WSW,249,10.0,20.0,26,0.00,,,0.00,1400.000000,,2013-05-22 21:21:00,
2013-05-22 14:42:00,52.0,17.0,-100.00,WSW,248,11.0,22.0,25,0.00,,,0.00,1382.000000,,2013-05-22 21:42:00,
2013-05-22 14:53:00,52.0,17.0,-100.00,WSW,248,11.0,22.0,25,0.00,,,0.00,1382.000000,,2013-05-22 21:53:00,
2013-05-22 15:03:00,52.0,17.0,-100.00,WSW,248,11.0,22.0,25,0.00,,,0.00,1382.000000,,2013-05-22 22:03:00,
2013-05-22 15:12:00,52.0,17.0,-100.00,WSW,248,11.0,22.0,25,0.00,,,0.00,1382.000000,,2013-05-22 22:12:00,
2013-05-22 15:22:00,52.0,17.0,-100.00,WSW,248,11.0,22.0,25,0.00,,,0.00,1382.000000,,2013-05-22 22:22:00,
2013-05-22 15:42:00,52.0,17.0,-100.00,SW,235,10.0,22.0,25,0.00,,,0.00,1285.000000,,2013-05-22 22:42:00,
2013-05-22 15:52:00,52.0,17.0,-100.00,SW,235,10.0,22.0,25,0.00,,,0.00,1285.000000,,2013-05-22 22:52:00,
2013-05-22 16:02:00,52.0,17.0,-100.00,SW,235,10.0,22.0,25,0.00,,,0.00,1285.000000,,2013-05-22 23:02:00,
2013-05-22 16:12:00,52.0,17.0,-100.00,SW,235,10.0,22.0,25,0.00,,,0.00,1285.000000,,2013-05-22 23:12:00,
2013-05-22 16:21:00,52.0,17.0,-100.00,SW,235,10.0,22.0,25,0.00,,,0.00,1285.000000,,2013-05-22 23:21:00,
2013-05-22 16:42:00,53.0,18.0,-100.00,SW,233,8.0,22.0,25,0.00,,,0.00,1109.000000,,2013-05-22 23:42:00,
2013-05-22 16:52:00,53.0,18.0,-100.00,SW,233,8.0,22.0,25,0.00,,,0.00,1109.000000,,2013-05-22 23:52:00,
2013-05-22 17:01:00,53.0,18.0,-100.00,SW,233,8.0,22.0,25,0.00,,,0.00,1109.000000,,2013-05-23 00:01:00,
2013-05-22 17:11:00,53.0,18.0,-100.00,SW,233,8.0,22.0,25,0.00,,,0.00,1109.000000,,2013-05-23 00:11:00,
2013-05-22 17:21:00,53.0,18.0,-100.00,SW,233,8.0,22.0,25,0.00,,,0.00,1109.000000,,2013-05-23 00:21:00,
2013-05-22 17:42:00,51.0,16.0,-100.00,WSW,245,9.0,19.0,25,0.00,,,0.00,878.000000,,2013-05-23 00:42:00,
2013-05-22 17:52:00,51.0,16.0,-100.00,WSW,245,9.0,19.0,25,0.00,,,0.00,878.000000,,2013-05-23 00:52:00,
2013-05-22 18:01:00,51.0,16.0,-100.00,WSW,245,9.0,19.0,25,0.00,,,0.00,878.000000,,2013-05-23 01:01:00,
2013-05-22 18:11:00,51.0,16.0,-100.00,WSW,245,9.0,19.0,25,0.00,,,0.00,878.000000,,2013-05-23 01:11:00,
2013-05-22 18:21:00,51.0,16.0,-100.00,WSW,245,9.0,19.0,25,0.00,,,0.00,878.000000,,2013-05-23 01:21:00,
2013-05-22 18:42:00,50.0,16.0,-100.00,WSW,241,7.0,17.0,25,0.00,,,0.00,606.000000,,2013-05-23 01:42:00,
2013-05-22 18:52:00,50.0,16.0,-100.00,WSW,241,7.0,17.0,25,0.00,,,0.00,606.000000,,2013-05-23 01:52:00,
2013-05-22 19:01:00,50.0,16.0,-100.00,WSW,241,7.0,17.0,25,0.00,,,0.00,606.000000,,2013-05-23 02:01:00,
2013-05-22 19:11:00,50.0,16.0,-100.00,WSW,241,7.0,17.0,25,0.00,,,0.00,606.000000,,2013-05-23 02:11:00,
2013-05-22 19:21:00,50.0,16.0,-100.00,WSW,241,7.0,17.0,25,0.00,,,0.00,606.000000,,2013-05-23 02:21:00,
2013-05-22 20:01:00,43.0,17.0,-100.00,West,279,8.0,13.0,35,0.00,,,0.00,195.000000,,2013-05-23 03:01:00,
2013-05-22 20:11:00,43.0,17.0,-100.00,West,279,8.0,13.0,35,0.00,,,0.00,195.000000,,2013-05-23 03:11:00,
2013-05-22 20:21:00,43.0,17.0,-100.00,West,279,8.0,13.0,35,0.00,,,0.00,195.000000,,2013-05-23 03:21:00,
2013-05-22 20:43:00,40.0,18.0,-100.00,WNW,283,3.0,13.0,40,0.00,,,0.00,14.000000,,2013-05-23 03:43:00,
2013-05-22 20:53:00,40.0,18.0,-100.00,WNW,283,3.0,13.0,40,0.00,,,0.00,14.000000,,2013-05-23 03:53:00,
2013-05-22 21:02:00,40.0,18.0,-100.00,WNW,283,3.0,13.0,40,0.00,,,0.00,14.000000,,2013-05-23 04:02:00,
2013-05-22 21:12:00,40.0,18.0,-100.00,WNW,283,3.0,13.0,40,0.00,,,0.00,14.000000,,2013-05-23 04:12:00,
2013-05-22 21:22:00,40.0,18.0,-100.00,WNW,283,3.0,13.0,40,0.00,,,0.00,14.000000,,2013-05-23 04:22:00,
2013-05-22 21:43:00,37.0,15.0,-100.00,NNW,338,3.0,7.0,40,0.00,,,0.00,0.000000,,2013-05-23 04:43:00,
2013-05-22 21:52:00,37.0,15.0,-100.00,NNW,338,3.0,7.0,40,0.00,,,0.00,0.000000,,2013-05-23 04:52:00,
2013-05-22 22:02:00,37.0,15.0,-100.00,NNW,338,3.0,7.0,40,0.00,,,0.00,0.000000,,2013-05-23 05:02:00,
2013-05-22 22:11:00,37.0,15.0,-100.00,NNW,338,3.0,7.0,40,0.00,,,0.00,0.000000,,2013-05-23 05:11:00,
2013-05-22 22:21:00,37.0,15.0,-100.00,NNW,338,3.0,7.0,40,0.00,,,0.00,0.000000,,2013-05-23 05:21:00,
2013-05-22 22:43:00,36.0,16.0,-100.00,NNE,18,2.0,7.0,44,0.00,,,0.00,0.000000,,2013-05-23 05:43:00,
2013-05-22 22:52:00,36.0,16.0,-100.00,NNE,18,2.0,7.0,44,0.00,,,0.00,0.000000,,2013-05-23 05:52:00,
2013-05-22 23:02:00,36.0,16.0,-100.00,NNE,18,2.0,7.0,44,0.00,,,0.00,0.000000,,2013-05-23 06:02:00,
2013-05-22 23:11:00,36.0,16.0,-100.00,NNE,18,2.0,7.0,44,0.00,,,0.00,0.000000,,2013-05-23 06:11:00,
2013-05-22 23:21:00,36.0,16.0,-100.00,NNE,18,2.0,7.0,44,0.00,,,0.00,0.000000,,2013-05-23 06:21:00,
2013-05-22 23:42:00,36.0,17.0,-100.00,North,357,2.0,4.0,45,0.00,,,0.00,0.000000,,2013-05-23 06:42:00,
2013-05-22 23:52:00,36.0,17.0,-100.00,North,357,2.0,4.0,45,0.00,,,0.00,0.000000,,2013-05-23 06:52:00,